EW5962 Weather Reports


time (UTC)temp
C
wind
direction
speed
KPH
gust
KPH
rain 1hr
cm
rain 24hr
cm
rain mn
cm
humidity
%
barometer
mb
20260503010004 10 221 0.0 0.0 0.00 0.00 0.00 76 1012.6
20260503005510 10 221 0.0 0.0 0.00 0.00 0.00 75 1012.5
20260503005105 10 221 0.0 0.0 0.00 0.00 0.00 73 1012.5
20260503004507 10 221 0.0 0.0 0.00 0.00 0.00 73 1012.4
20260503004009 10 221 0.0 0.0 0.00 0.00 0.00 72 1012.3
20260503003603 11 221 0.0 0.0 0.00 0.00 0.00 71 1012.2
20260503003002 11 221 0.0 0.0 0.00 0.00 0.00 68 1012.1
20260503002516 11 221 0.0 0.0 0.00 0.00 0.00 68 1012.1
20260503002104 11 221 0.0 0.0 0.00 0.00 0.00 68 1012.1
20260503001505 12 221 0.0 0.0 0.00 0.00 0.00 68 1011.9
20260503001009 12 221 0.0 0.0 0.00 0.00 0.00 65 1011.9
20260503000604 12 221 0.0 0.0 0.00 0.00 0.00 64 1011.9
20260503000003 12 221 0.0 0.0 0.00 0.00 0.00 64 1011.8
20260502235509 12 221 0.0 0.0 0.00 0.00 0.00 63 1011.9
20260502235103 12 221 0.0 0.0 0.00 0.00 0.00 63 1011.8
20260502234504 12 221 0.0 0.0 0.00 0.00 0.00 63 1011.6
20260502234010 12 221 0.0 0.0 0.00 0.00 0.00 60 1011.5
20260502233603 12 221 0.0 0.0 0.00 0.00 0.00 62 1011.5
20260502233004 12 221 0.0 0.0 0.00 0.00 0.00 63 1011.3
20260502232509 13 221 0.0 0.0 0.00 0.00 0.00 64 1011.3
20260502232103 13 221 0.0 0.0 0.00 0.00 0.00 61 1011.2
20260502231503 13 221 0.0 0.0 0.00 0.00 0.00 59 1011.1
20260502231010 13 221 0.0 0.0 0.00 0.00 0.00 58 1011.0
20260502230604 13 221 0.0 0.0 0.00 0.00 0.00 56 1010.9
20260502230004 13 221 0.0 0.0 0.00 0.00 0.00 53 1011.0
20260502225510 13 221 0.0 0.0 0.00 0.00 0.00 53 1010.9
20260502225104 13 221 0.0 0.0 0.00 0.00 0.00 53 1010.9
20260502224503 13 221 0.0 0.0 0.00 0.00 0.00 48 1010.8
20260502224010 13 221 0.0 0.0 0.00 0.00 0.00 50 1010.8
20260502223604 14 221 0.0 0.0 0.00 0.00 0.00 49 1010.8
20260502223003 14 221 0.0 0.0 0.00 0.00 0.00 49 1010.9
20260502222510 14 221 0.0 0.0 0.00 0.00 0.00 49 1010.8
20260502222104 14 221 0.0 0.0 0.00 0.00 0.00 49 1010.7
20260502221503 14 221 0.0 0.0 0.00 0.00 0.00 47 1010.6
20260502221010 14 221 0.0 0.0 0.00 0.00 0.00 50 1010.6
20260502220604 14 221 0.0 0.0 0.00 0.00 0.00 47 1010.6
20260502220003 14 221 0.0 0.0 0.00 0.00 0.00 46 1010.4
20260502215509 15 221 0.0 0.0 0.00 0.00 0.00 44 1010.5
20260502215102 15 221 0.0 3.2 0.00 0.00 0.00 45 1010.4
20260502214504 15 206 0.0 3.2 0.00 0.00 0.00 41 1010.5
20260502214009 15 186 0.0 1.6 0.00 0.00 0.00 47 1010.4
20260502213604 15 186 0.0 1.6 0.00 0.00 0.00 45 1010.4
20260502213003 15 254 0.0 3.2 0.00 0.00 0.00 44 1010.4
20260502212509 15 343 0.0 3.2 0.00 0.00 0.00 45 1010.3
20260502212104 15 340 0.0 1.6 0.00 0.00 0.00 43 1010.3
20260502211504 16 167 0.0 1.6 0.00 0.00 0.00 45 1010.3
20260502211009 16 167 0.0 1.6 0.00 0.00 0.00 42 1010.3
20260502210604 16 167 0.0 1.6 0.00 0.00 0.00 40 1010.3
20260502210004 16 164 0.0 0.0 0.00 0.00 0.00 42 1010.3
20260502205512 15 164 0.0 0.0 0.00 0.00 0.00 40 1010.3
20260502205105 15 164 0.0 0.0 0.00 0.00 0.00 42 1010.4
20260502204503 15 273 0.0 0.0 0.00 0.00 0.00 41 1010.4
20260502204009 15 347 0.0 0.0 0.00 0.00 0.00 40 1010.4
20260502203603 15 198 0.0 0.0 0.00 0.00 0.00 48 1010.5
20260502203009 15 41 0.0 0.0 0.00 0.00 0.00 43 1010.5
20260502202508 15 3 0.0 0.0 0.00 0.00 0.00 42 1010.5
20260502202102 15 62 0.0 0.0 0.00 0.00 0.00 41 1010.6
20260502201503 15 34 0.0 0.0 0.00 0.00 0.00 39 1010.6
20260502201011 15 251 0.0 0.0 0.00 0.00 0.00 43 1010.6
20260502200604 15 108 0.0 0.0 0.00 0.00 0.00 42 1010.6
20260502200003 15 108 0.0 0.0 0.00 0.00 0.00 42 1010.7
20260502195514 15 347 0.0 0.0 0.00 0.00 0.00 41 1010.9
20260502195103 15 352 0.0 1.6 0.00 0.00 0.00 39 1011.1
20260502194503 15 310 0.0 1.6 0.00 0.00 0.00 39 1011.1
20260502194011 15 25 0.0 0.0 0.00 0.00 0.00 38 1011.2
20260502193606 15 290 0.0 0.0 0.00 0.00 0.00 43 1011.4
20260502193003 15 295 0.0 0.0 0.00 0.00 0.00 38 1011.3
20260502192510 15 259 0.0 0.0 0.00 0.00 0.00 40 1011.4
20260502192105 15 358 0.0 11.3 0.00 0.00 0.00 39 1011.5
20260502191511 15 318 0.0 11.3 0.00 0.00 0.00 38 1011.5
20260502191009 15 14 0.0 0.0 0.00 0.00 0.00 40 1011.5
20260502190603 15 323 0.0 0.0 0.00 0.00 0.00 41 1011.6
20260502190005 14 301 0.0 1.6 0.00 0.00 0.00 44 1011.7
20260502185511 14 136 0.0 3.2 0.00 0.00 0.00 48 1011.7
20260502185103 13 289 0.0 3.2 0.00 0.00 0.00 43 1011.7
20260502184503 13 11 0.0 1.6 0.00 0.00 0.00 45 1011.7
20260502184010 13 41 0.0 0.0 0.00 0.00 0.00 48 1011.7
20260502183604 13 5 0.0 1.6 0.00 0.00 0.00 44 1011.8
20260502183003 13 40 0.0 1.6 0.00 0.00 0.00 47 1011.9
20260502182509 13 304 0.0 1.6 0.00 0.00 0.00 49 1011.8
20260502182104 13 18 0.0 0.0 0.00 0.00 0.00 51 1011.8
20260502181502 13 1 0.0 0.0 0.00 0.00 0.00 49 1011.8
20260502181009 13 347 0.0 3.2 0.00 0.00 0.00 47 1011.8
20260502180603 13 313 0.0 3.2 0.00 0.00 0.00 50 1011.8
20260502164009 12 347 0.0 11.3 0.00 0.00 0.00 50 1012.7
20260502163603 12 340 0.0 11.3 0.00 0.00 0.00 51 1013.0
20260502163006 12 323 0.0 11.3 0.00 0.00 0.00 52 1013.0
20260502162512 12 347 0.0 9.7 0.00 0.00 0.00 53 1012.9
20260502162106 12 20 0.0 4.8 0.00 0.00 0.00 56 1013.0
20260502161503 12 349 0.0 1.6 0.00 0.00 0.00 59 1012.8
20260502161011 12 323 0.0 1.6 0.00 0.00 0.00 56 1013.1
20260502160603 12 279 0.0 12.9 0.00 0.00 0.00 57 1013.1
20260502152103 11 337 0.0 3.2 0.00 0.00 0.00 59 1013.4
20260502151503 11 29 0.0 3.2 0.00 0.00 0.00 59 1013.5
20260502151010 11 294 0.0 0.0 0.00 0.00 0.00 57 1013.3
20260502150602 11 316 0.0 1.6 0.00 0.00 0.00 58 1013.4
20260502130503 11 313 0.0 0.0 0.00 0.00 0.00 69 1012.6
20260502123503 11 299 0.0 1.6 0.00 0.00 0.00 70 1011.9
20260502123024 11 339 0.0 0.0 0.00 0.00 0.00 72 1011.8
20260502122602 11 2 0.0 0.0 0.00 0.00 0.00 74 1011.9
20260502122104 11 1 0.0 0.0 0.00 0.00 0.00 72 1012.0
20260502121513 11 349 0.0 0.0 0.00 0.00 0.00 73 1012.2
20260502121018 11 308 0.0 0.0 0.00 0.00 0.00 74 1012.2
20260502120603 11 304 0.0 0.0 0.00 0.00 0.00 74 1012.2
20260502115603 11 351 0.0 0.0 0.00 0.00 0.00 75 1012.3
20260502115003 11 344 0.0 0.0 0.00 0.00 0.00 74 1012.2
20260502114510 11 352 0.0 0.0 0.00 0.00 0.00 76 1012.2
20260502114103 11 306 0.0 0.0 0.00 0.00 0.00 76 1011.9
20260502113503 11 9 0.0 0.0 0.00 0.00 0.00 80 1011.8
20260502113010 11 349 0.0 0.0 0.00 0.00 0.00 79 1011.9
20260502112603 11 349 0.0 0.0 0.00 0.00 0.00 80 1011.8
20260502112003 11 314 0.0 0.0 0.00 0.00 0.00 81 1011.8
20260502111509 11 311 0.0 0.0 0.00 0.00 0.00 82 1011.9
20260502111103 10 323 0.0 0.0 0.00 0.00 0.00 84 1011.8
20260502110503 10 349 0.0 0.0 0.00 0.00 0.00 87 1011.8
20260502110008 10 347 0.0 0.0 0.00 0.00 0.00 88 1011.7
20260502105603 10 347 0.0 0.0 0.00 0.00 0.00 88 1011.7
20260502105003 10 347 0.0 0.0 0.00 0.00 0.00 89 1011.7
20260502104515 10 3 0.0 0.0 0.00 0.00 0.00 90 1011.4
20260502104105 10 10 0.0 0.0 0.00 0.00 0.00 91 1011.3
20260502103503 10 8 0.0 0.0 0.00 0.00 0.00 92 1011.5
20260502103009 10 26 0.0 0.0 0.00 0.00 0.00 92 1011.5
20260502102604 10 25 0.0 0.0 0.00 0.00 0.00 91 1011.6
20260502102004 10 348 0.0 0.0 0.00 0.00 0.00 92 1011.6
20260502101511 10 348 0.0 0.0 0.00 0.00 0.00 92 1011.7
20260502101104 10 348 0.0 0.0 0.00 0.00 0.00 92 1011.6
20260502100503 10 348 0.0 0.0 0.00 0.00 0.00 92 1011.9
20260502091509 10 348 0.0 0.0 0.00 0.00 0.00 92 1012.3
20260502091106 10 348 0.0 0.0 0.00 0.00 0.00 92 1012.1
20260502090502 10 348 0.0 0.0 0.00 0.00 0.00 91 1012.1
20260502071509 10 348 0.0 0.0 0.00 0.00 0.00 90 1011.0
20260502071103 10 348 0.0 0.0 0.00 0.00 0.00 89 1011.0
20260502070502 10 348 0.0 0.0 0.00 0.00 0.00 89 1010.9
20260502070009 10 348 0.0 0.0 0.00 0.00 0.00 90 1010.9
20260502065603 10 348 0.0 0.0 0.00 0.00 0.00 89 1010.9
20260502065002 10 348 0.0 0.0 0.00 0.00 0.00 90 1011.0
20260502064516 10 348 0.0 1.6 0.00 0.00 0.00 90 1011.1
20260502064104 10 348 0.0 1.6 0.00 0.00 0.00 89 1011.0
20260502063503 10 51 0.0 4.8 0.00 0.00 0.00 90 1011.2
20260502063011 10 8 0.0 4.8 0.00 0.00 0.00 90 1011.5
20260502062603 10 304 0.0 0.0 0.00 0.00 0.00 90 1011.4
20260502062002 10 232 0.0 0.0 0.00 0.00 0.00 91 1011.2
20260502061509 10 231 0.0 0.0 0.00 0.00 0.00 91 1011.1
20260502061102 10 231 0.0 0.0 0.00 0.00 0.00 90 1011.0
20260502060503 10 231 0.0 0.0 0.00 0.00 0.00 90 1011.1
20260502060009 10 231 0.0 0.0 0.00 0.00 0.00 90 1011.1
20260502055604 10 231 0.0 0.0 0.00 0.00 0.00 90 1011.1
20260502055003 10 231 0.0 0.0 0.00 0.00 0.00 90 1011.2
20260502054508 10 231 0.0 0.0 0.00 0.00 0.00 90 1011.2
20260502054102 10 231 0.0 0.0 0.00 0.00 0.00 90 1011.2
20260502053503 10 231 0.0 0.0 0.00 0.00 0.00 90 1011.2
20260502053012 10 231 0.0 0.0 0.00 0.00 0.00 89 1011.2
20260502052605 10 231 0.0 0.0 0.00 0.00 0.00 89 1011.1
20260502052003 10 231 0.0 0.0 0.00 0.00 0.00 89 1011.2
20260502051508 10 231 0.0 0.0 0.00 0.00 0.00 89 1011.2
20260502051102 10 231 0.0 0.0 0.00 0.00 0.00 89 1011.3
20260502050504 10 231 0.0 0.0 0.00 0.00 0.00 89 1011.4
20260502050011 10 231 0.0 0.0 0.00 0.00 0.00 89 1011.4
20260502045604 10 231 0.0 0.0 0.00 0.00 0.00 89 1011.5
20260502045004 10 231 0.0 0.0 0.00 0.00 0.00 88 1011.4
20260502044509 10 231 0.0 0.0 0.00 0.00 0.00 88 1011.5
20260502044103 10 231 0.0 0.0 0.00 0.00 0.00 88 1011.6
20260502043502 10 231 0.0 0.0 0.00 0.00 0.00 88 1011.5
20260502043009 10 231 0.0 0.0 0.00 0.00 0.00 88 1011.5
20260502042603 10 231 0.0 0.0 0.00 0.00 0.00 87 1011.5
20260502042003 10 232 0.0 0.0 0.00 0.00 0.00 87 1011.5
20260502041516 10 231 0.0 0.0 0.00 0.00 0.00 87 1011.6
20260502041104 10 231 0.0 0.0 0.00 0.00 0.00 87 1011.5
20260502040512 10 231 0.0 0.0 0.00 0.00 0.00 86 1011.5
20260502040105 10 231 0.0 0.0 0.00 0.00 0.00 86 1011.7
20260502035502 10 231 0.0 0.0 0.00 0.00 0.00 86 1011.6
20260502035009 11 231 0.0 0.0 0.00 0.00 0.00 86 1011.8
20260502034603 11 231 0.0 0.0 0.00 0.00 0.00 85 1011.7
20260502034003 11 231 0.0 0.0 0.00 0.00 0.00 85 1011.7
20260502033508 11 231 0.0 0.0 0.00 0.00 0.00 85 1011.7
20260502033105 11 231 0.0 0.0 0.00 0.00 0.00 85 1011.8
20260502032504 11 231 0.0 0.0 0.00 0.00 0.00 84 1012.0
20260502032008 11 231 0.0 0.0 0.00 0.00 0.00 84 1011.9
20260502031603 11 231 0.0 0.0 0.00 0.00 0.00 84 1012.0
20260502031003 11 231 0.0 0.0 0.00 0.00 0.00 83 1012.0
20260502030509 11 231 0.0 0.0 0.00 0.00 0.00 83 1012.0
20260502025503 11 231 0.0 0.0 0.00 0.00 0.00 82 1011.9
20260502025008 11 231 0.0 0.0 0.00 0.00 0.00 82 1011.8
20260502024608 11 231 0.0 0.0 0.00 0.00 0.00 82 1011.9
20260502024003 11 231 0.0 0.0 0.00 0.00 0.00 82 1011.9
20260502023508 11 231 0.0 0.0 0.00 0.00 0.00 82 1012.0
20260502023103 11 231 0.0 0.0 0.00 0.00 0.00 81 1011.9
20260502022503 12 231 0.0 0.0 0.00 0.00 0.00 81 1011.9
20260502022015 12 231 0.0 0.0 0.00 0.00 0.00 80 1011.9
20260502021603 12 231 0.0 0.0 0.00 0.00 0.00 80 1011.9
20260502021003 12 231 0.0 0.0 0.00 0.00 0.00 81 1011.8
20260502020509 12 231 0.0 0.0 0.00 0.00 0.00 80 1011.9
20260502015504 12 231 0.0 0.0 0.00 0.00 0.00 80 1011.9
20260502015016 12 231 0.0 0.0 0.00 0.00 0.00 79 1012.1
20260502014604 12 231 0.0 0.0 0.00 0.00 0.00 79 1012.1
20260502014002 12 231 0.0 0.0 0.00 0.00 0.00 79 1012.2
20260502013508 12 231 0.0 0.0 0.00 0.00 0.00 78 1012.2
20260502013103 12 231 0.0 0.0 0.00 0.00 0.00 78 1012.1
20260502012502 13 231 0.0 0.0 0.00 0.00 0.00 78 1011.9
20260502012009 13 231 0.0 0.0 0.00 0.00 0.00 78 1011.9
20260502011603 13 231 0.0 0.0 0.00 0.00 0.00 77 1011.9
20260502011003 13 231 0.0 0.0 0.00 0.00 0.00 77 1011.8
20260502010511 13 231 0.0 0.0 0.00 0.00 0.00 77 1011.9